Location: Newark
(35.0033°N, 81.0878°W)
Time: 10:25:59
(UTC+00:00)

Envisat - Pass Details

Date: 29 October 2020
Orbit: 764 x 766 km, 98.1° (Epoch: 03 December)

Event Time Altitude Azimuth Distance (km) Brightness Sun altitude
Rises 10:48:11 0° 21° (NNE) 3,236 6.4 -11.8°
Reaches altitude 10° 10:50:37 10° 28° (NNE) 2,306 5.7 -11.3°
Maximum altitude 10:55:24 41° 98° (E) 1,099 4.5 -10.3°
Drops below altitude 10° 11:00:09 10° 169° (SSE) 2,291 5.8 -9.4°
Sets 11:02:34 0° 176° (S) 3,212 6.4 -8.9°
